Weather Roundup
Issued by NWS Chicago, IL

Home | Current Version | Previous Version | Graphics & Text | Print | Product List | Glossary On
Versions: 1 2 3 4 5 6 7 8 9 10 11 12 13 14 15 16 17 18 19 20 21 22 23 24 25 26 27 28 29 30 31 32 33 34 35 36 37 38 39 40 41 42 43 44 45 46 47 48 49 50
000
NZUS59 KLOT 220104
HRRLOT

CHICAGO AREA WEATHER ROUNDUP
NATIONAL WEATHER SERVICE CHICAGO/ROMEOVILLE IL
800 PM CDT SAT OCT 21 2017

NOTE: "FAIR" INDICATES FEW OR NO CLOUDS BELOW 12,000 FEET WITH NO
SIGNIFICANT WEATHER AND/OR OBSTRUCTIONS TO VISIBILITY.

* THESE STATIONS ARE NOT UNDER NWS QUALITY CONTROL. THEY ALSO MAY NOT
  REPORT WEATHER SUCH AS PRECIPITATION OR FOG.

ILZ005-006-012>014-019>023-220200-
NORTHEAST ILLINOIS

CITY           SKY/WX    TMP DP  RH WIND       PRES   REMARKS
OHARE          PTCLDY    71  57  61 S15       30.00S
MIDWAY         PTCLDY    72  58  61 S17G29    30.02S
AURORA         MOCLDY    71  58  63 S13G24    30.00S
LANSING*       CLEAR     69  60  71 S13G18    30.04S
JOLIET*        PTCLDY    71  59  66 S10       30.02S
WAUKEGAN       PTCLDY    72  58  61 S16       29.99R
DUPAGE AIRPORT CLEAR     70  59  68 S14       29.99S
WHEELING       CLEAR     73  59  61 S15       30.01R
KANKAKEE*      CLEAR     69  57  65 S12G20    30.05F
NORTHERLY ISL    N/A     71  55  56 S16         N/A
$$

WIZ051-052-058>065-066-070>072-220200-
SOUTHEAST WISCONSIN

CITY           SKY/WX    TMP DP  RH WIND       PRES   REMARKS
MILWAUKEE      PTCLDY    68  58  70 S10       29.98R
KENOSHA*       CLEAR     72  58  61 S14       29.99R
RACINE*        CLEAR     64  57  78 S9        30.01R
WAUKESHA       PTCLDY    68  55  64 S10       29.98R
WEST BEND      CLOUDY    63  54  72 SE6       29.96R
$$

INZ001>003-010>013-019-020-220200-
NORTHWEST INDIANA

CITY           SKY/WX    TMP DP  RH WIND       PRES   REMARKS
GARY*          PTCLDY    72  55  56 S8        30.04S
MICHIGAN CITY* NOT AVBL
RENSSELAER*    NOT AVBL
VALPARAISO     CLEAR     69  57  65 SE9       30.07S
$$

LMZ740>746-220200-
SOUTHERN LAKE MICHIGAN

STATION/POSITION TIME  SKY/WX   TEMP WIND        PRES    VSBY
                                AIR  DIR/SP/G
                 (UTC)          (F)  (DEG/KT/KT) (MB)    (MI)
HARRISON CRIB    0040            69  170/ 22/ 23   N/A
BURNHAM HARBOR   0100            71  170/ 16/ 17   N/A
CALUMET HARBOR   0030            72  160/ 11/ 16 1016.0F
BURNS HARBOR     0040            71  160/ 12/ 18 1017.6S
MICHIGAN CITY    0040            71  150/ 10/ 13   N/A
$$

ABBREVIATIONS USED IN REMARKS
   TC - TEMPERATURE IN CELSIUS
  WCI - WIND CHILL INDEX
   HX - HEAT INDEX
  VSB - VISIBILITY
$$




USA.gov is the U.S. government's official web portal to all federal, state and local government web resources and services.